DELTA 1 DEB, 7033

Orbit data source: Space-Track

DELTA 1 DEB, 7033 is space debris in SSO originally from a launch on Tue, 06 Nov 1973 UTC launched from the Air Force Western Test Range (AFWTR). Debris objects in space refer to the collection of defunct objects orbiting the Earth. Examples of debris include non-operational satellites, rocket bodies, and fragments generated from explosions, collisions, or faulty payload assembly.

Loading next visibility...
Identifier
7033, 1973-086Z
Orbit
SSO
Country
Flag of USUS
Related business
Manufacturer
Unknown
Mission
Spacecraft
Bus & Motor
Unknown
Mass
Unknown
Launch date (UTC)
1973-11-06 (53 years ago)
Launch vehicle
Unknown
Launch site
Air Force Western Test Range (AFWTR)
Object type
Payload
Rocket body
Debris
Shape & HBR
Unknown shape, 0.2 m
Radar Cross Section
Medium (>0.1 m² and <1 m²)

Expand to show TLE details & history
Last TLE update: 6 hours ago

TLE from 6 hours ago
0 DELTA 1 DEB
1  7033U 73086Z   26221.86259301 -.00000001  00000-0  30053-3 0  9990
2  7033 101.5772 245.9526 0025771 196.5793 339.5070 12.41927549384155
Epoch: 2026-08-09T20:42Z
TLE epoch observation values (Epoch: 2026-08-09T20:42:08.036Z)
Latitude
3.85262°
Longitude
157.8522°
Altitude
1,481.584 km
Speed
7.132 km/s
True Right ascension
04h 26m 57s
True Declination
3° 49' 54"
Sunlit
Object was in daylight at epoch
Visualization orbit readout
Latitude
Unknown
Longitude
Unknown
Altitude
Unknown
Speed
Unknown
Apparent Right ascension
Unknown
Apparent Declination
Unknown
Sunlit
N/A
Visualization observer readout
Local Sidereal Time
16:38:37
Azimuth
Unknown
Elevation
Unknown
Doppler factor
Unknown
Orbital elements
Apogee altitude
1,516.282 km
Perigee altitude
1,475.698 km
Semi-major axis
7,874.127 km
Eccentricity
0.00258
Inclination
101.5772°
RAAN
245.9526°
Arg. of periapsis
196.5793°
True anomaly
339.4033°
Mean anomaly
339.507°
Eccentric anomaly
339.45518°
Mean motion
3.10627 °/min
Orbital period
115.89 mins
BSTAR
0.00030053
Loading maneuver chart data...
Computing Atmospheric mass density...
Loading historical data...
Loading historical data...
Loading historical data...
Loading historical data...
Loading historical data...
Loading historical data...
Loading historical data...

Documentation

Showing up to 5 results
|